Regional Weather Roundup
Issued by NWS

Home | Current Version | Previous Version | Text Only | Print | Product List | Glossary On
Versions: 1 2 3 4 5 6 7 8 9 10 11 12 13 14 15 16 17 18 19 20 21 22 23 24 25 26 27
000
ASUS45 KBOU 050007
RWRCO

WEATHER ROUNDUP FOR COLORADO
NATIONAL WEATHER SERVICE DENVER/BOULDER CO
500 PM MST SUN DEC 04 2016

NOTE: "FAIR" INDICATES FEW OR NO CLOUDS BELOW 12000 FEET WITH NO
SIGNIFICANT WEATHER AND/OR OBSTRUCTIONS TO VISIBILITY.

COZ001>005-013-030-031-050100-
...NORTHWEST COLORADO...

CITY           SKY/WX    TMP DP  RH WIND       PRES   REMARKS
CRAIG          FAIR      30  14  51 SE8       29.96F WCI  22
HAYDEN         MOCLDY    27  14  59 SE10      29.97F WCI  17
MEEKER         FAIR      28  17  63 NE5       29.97F WCI  23
MOUNT WERNER   NOT AVBL
STEAMBOAT SPGS CLOUDY    27  17  65 CALM      29.97F
WALDEN           N/A     30  14  51 S10G20    29.94F WCI  21
$$

COZ006>008-011-050100-
...WEST CENTRAL VALLEYS...

CITY           SKY/WX    TMP DP  RH WIND       PRES   REMARKS
GRAND JUNCTION FAIR      35  18  49 CALM      30.06F
MONTROSE       FAIR      34  15  46 CALM      30.08F
EAGLE          PTCLDY    36  12  38 CALM      30.02F
RIFLE          CLOUDY    36  15  42 CALM      30.05F
DELTA          NOT AVBL
NUCLA          FAIR      39   9  28 CALM      30.11S
$$

COZ017>023-064>068-050100-
...SOUTHWEST COLORADO...

CITY           SKY/WX    TMP DP  RH WIND       PRES   REMARKS
DURANGO        FAIR      34  20  56 SW8       30.08R WCI  27
CORTEZ         FAIR      35  20  54 CALM      30.09F
PAGOSA SPRINGS FAIR      32  19  58 CALM      30.08R
TELLURIDE      FAIR      30   4  33 W8        30.11R WCI  23
WOLF CREEK PAS FAIR      19   3  49 S13       30.14F WCI   7
$$

COZ009-010-012-014-032>034-037-058>063-050100-
...CENTRAL COLORADO...

CITY           SKY/WX    TMP DP  RH WIND       PRES   REMARKS
ASPEN          FAIR      25  10  53 CALM      30.01S
BUENA VISTA    FAIR      38  11  32 W3        29.93F
COPPER MTN     FAIR      25  12  58 MISG      30.01R
BERTHOUD PASS  FAIR      14   1  57 W29G43    29.95F WCI  -7
COTTONWOOD PAS FAIR      36  10  35 SW26G45   29.93F
GUNNISON       FAIR      24  10  55 S3        30.07S
KREMMLING      FAIR      30  16  55 W5        29.97F WCI  25
LEADVILLE      CLOUDY    29  12  49 NE13G20   29.98F WCI  19
MONARCH PASS   FAIR      19   7  58 W38       30.13S WCI  -1
SALIDA         FAIR      40  10  28 SW23G36   30.00S
SUNLIGHT       MOCLDY    19  16  86 SW20G25   30.05S WCI   4
WILKERSON PASS FAIR      28  10  47 W24G38    29.93F WCI  14
$$

COZ069>075-050100-
...SAN LUIS VALLEY/SANGRE DE CRISTO MOUNTAINS...

CITY           SKY/WX    TMP DP  RH WIND       PRES   REMARKS
ALAMOSA        FAIR      26  11  52 NW7       30.03S WCI  18
LA VETA PASS   FAIR      28   5  37 NE36G44   29.96F WCI  12
SAGUACHE       FAIR      27   3  36 CALM      30.05F
$$

COZ035-036-038>040-050100-
...NORTHERN COLORADO FRONT RANGE...

CITY           SKY/WX    TMP DP  RH WIND       PRES   REMARKS
DENVER INTL AP FAIR      43  13  29 SE6       29.80F
DMNS CITY PARK   N/A     48  10  22 E12       29.79S
AURORA         PTCLDY    41  11  29 SE10      29.82F
FRONT RANGE AP PTCLDY    45  14  29 SE6       29.82
ERIE MUNI ARPT FAIR      53   8  16 W16G29    29.78F
BOULDER MUN AP FAIR      46  16  29 CALM      29.76F
CENTENNIAL     MOCLDY    46   7  20 SE12      29.81F
BROOMFIELD     PTCLDY    48  14  25 SE5       29.81
FORT COLLINS   FAIR      48  14  25 W22G28    29.77F
LONGMONT       FAIR      45  15  30 E5        29.80R
$$

COZ041-046-047-076>085-087-088-050100-
...PIKES PEAK/PALMER DIVIDE AND SOUTHERN FOOTHILLS...

CITY           SKY/WX    TMP DP  RH WIND       PRES   REMARKS
COLO. SPRINGS  FAIR      36   8  31 E7        29.87F
A. F. ACADEMY  FAIR      35   9  34 SE7       29.85F WCI  29
SCHRIEVER AFB  NOT AVBL
ELLICOTT       LGT RAIN N/A N/A N/A SE3       29.86F
FALCON         FAIR      32   6  33 S6        29.88F WCI  27
FORT CARSON    FAIR      36  10  32 S6        29.85S
LIMON          FAIR      34   9  35 SE9       29.86S WCI  27
MONUMENT HILL  FAIR      32   9  37 S9        29.86F WCI  24
TRINIDAD       FAIR      43  11  27 W10       29.88F
$$

COZ042>045-048>051-090-091-050100-
...NORTHEAST COLORADO...

CITY           SKY/WX    TMP DP  RH WIND       PRES   REMARKS
GREELEY ARPT   FAIR      33  14  45 CALM      29.79F
AKRON          FAIR      37   8  30 SW10      29.80F
BURLINGTON     FAIR      37  11  34 S13       29.87F
WRAY           FAIR      41  12  30 SW8       29.82F
STERLING       FAIR      41  14  33 SW7       29.77F
HOLYOKE        FAIR      37  10  32 S9        29.81S
FORT MORGAN    FAIR      42   8  24 CALM      29.80F
$$

COZ086-089-092>099-050100-
...SOUTHEAST COLORADO...

CITY           SKY/WX    TMP DP  RH WIND       PRES   REMARKS
PUEBLO         FAIR      41  13  31 NE13      29.83F
LA JUNTA       FAIR      44  10  25 NE8       29.85F
LAMAR          FAIR      41  15  35 SE10      29.86F
SPRINGFIELD      N/A     41  15  35 S17       29.91F
$$




USA.gov is the U.S. government's official web portal to all federal, state and local government web resources and services.